[[{"header":{"parameterUnit":"m.s-1","parameterCategory":1,"la1":30.2991,"la2":30.254,"lo1":-89.0895,"lo2":-89.0444,"dy":0.0017,"dx":0.0017,"nx":28,"ny":28,"refTime":"2025-09-14T21:00:00:Z","depth":0,"parameterNumber":2,"parameterNumberName":"U-component_of_WINDS"},"data":[0,0,0,0,0,0,0,0,0,0,0,0,0,0,0,0,0,0,0,0,0,0,0,0,0,0,0,0,0,0,0,0,0,0,0,0,0,0,0,0,0,0,0,0,0,0,0,0,0,0,0,0,0,0,0,0,0,0,-0.8284,-0.8285,0,-0.8362,-0.8363,-0.8364,-0.8394,-0.8394,-0.8394,-0.8394,-0.8471,-0.8473,-0.8475,0,0,0,0,0,0,0,0,0,0,0,0,0,-0.8161,-0.8163,-0.8284,-0.8285,-0.8286,-0.8362,-0.8363,-0.8364,-0.8394,-0.8394,-0.8394,-0.8394,-0.847,-0.8473,-0.8475,0,0,0,0,0,0,0,0,0,0,0,0,0,-0.8224,-0.8164,-0.8284,-0.8311,-0.8314,-0.8362,-0.8363,-0.8365,-0.8394,-0.8394,-0.8394,-0.8394,-0.8469,-0.8472,-0.8476,-0.8503,0,0,-0.8486,-0.8487,0,0,0,0,0,0,0,0,-0.8221,-0.8229,-0.8306,-0.8309,-0.8312,-0.8368,-0.8348,-0.8411,-0.8395,-0.8364,-0.8394,-0.8393,-0.8437,-0.8443,-0.8458,-0.8506,-0.8509,-0.8486,-0.8488,-0.849,-0.8491,0,0,0,0,0,0,0,-0.8216,-0.8226,-0.8315,-0.8307,-0.8311,-0.8318,-0.8327,-0.836,-0.8401,-0.8366,-0.8369,-0.8378,-0.8438,-0.8455,-0.846,-0.8511,-0.8486,-0.8489,-0.8491,-0.8492,-0.8587,-0.8588,0,0,0,0,0,0,-0.8208,-0.8222,-0.8313,-0.8318,-0.8265,-0.8321,-0.833,-0.8351,-0.8401,-0.8408,-0.8378,-0.8379,-0.8449,-0.8456,-0.8463,-0.8499,-0.849,-0.8493,-0.8495,-0.8587,-0.8587,-0.8588,0,0,0,0,0,0,-0.8205,-0.8215,-0.831,-0.827,-0.8283,-0.8323,-0.8346,-0.8352,-0.8369,-0.8409,-0.8417,-0.8387,-0.8449,-0.8458,-0.8493,-0.8502,-0.8494,-0.8497,-0.8586,-0.8587,-0.8588,-0.857,0,0,0,0,0,0,-0.8201,-0.8214,-0.8225,-0.827,-0.8285,-0.8339,-0.8346,-0.8354,-0.8375,-0.8377,-0.842,-0.8427,-0.8449,-0.8488,-0.8496,-0.8506,-0.85,-0.8586,-0.8587,-0.8587,-0.857,-0.857,-0.857,0,0,0,0,0,-0.8197,-0.8216,-0.8225,-0.8236,-0.8299,-0.8339,-0.8347,-0.8374,-0.8375,-0.8386,-0.8413,-0.8425,-0.85,-0.8491,-0.8501,-0.8512,-0.8585,-0.8586,-0.8587,-0.857,-0.857,-0.857,0,0,0,0,0,0,-0.8168,-0.8222,-0.8233,-0.8268,-0.8299,-0.8344,-0.8359,-0.8373,-0.8404,-0.8404,-0.8435,-0.8445,-0.8478,-0.8499,-0.8488,-0.8542,-0.8543,-0.8547,-0.8527,-0.8528,-0.8528,-0.8522,-0.8503,0,0,0,0,0,-0.8166,-0.8195,-0.824,-0.8266,-0.8282,-0.8318,-0.8336,-0.8354,-0.8387,-0.84,-0.8429,-0.8461,-0.8492,-0.8511,-0.8541,-0.8574,-0.8584,-0.8587,-0.8587,-0.8587,-0.8589,-0.8609,-0.8611,-0.8592,-0.8592,-0.8592,0,0,-0.8162,-0.8195,-0.8211,-0.8262,-0.8288,-0.8317,-0.8328,-0.8358,-0.838,-0.8405,-0.844,-0.8463,-0.85,-0.8534,-0.8551,-0.8553,-0.8597,-0.8588,-0.8588,-0.859,-0.8611,-0.8612,-0.8614,-0.8592,-0.8592,-0.8592,0,0,-0.8169,-0.8196,-0.8222,-0.8249,-0.829,-0.8314,-0.832,-0.8364,-0.8381,-0.8417,-0.8437,-0.8464,-0.8515,-0.8542,-0.8562,-0.8582,-0.8595,-0.8591,-0.8591,-0.8611,-0.8612,-0.8614,-0.8622,-0.8624,-0.8593,-0.8593,-0.8593,0,-0.8158,-0.8203,-0.8233,-0.8263,-0.8285,-0.8311,-0.8337,-0.8362,-0.8409,-0.8424,-0.8426,-0.8493,-0.852,-0.8562,-0.8567,-0.8582,-0.8591,-0.8586,-0.861,-0.8612,-0.8614,-0.8621,-0.8624,-0.8592,-0.8592,-0.8593,-0.8593,0,-0.8188,-0.8219,-0.8235,-0.8283,-0.8307,-0.8334,-0.8369,-0.839,-0.8407,-0.8431,-0.8469,-0.8502,-0.8541,-0.8552,-0.8568,-0.8597,-0.8597,-0.8604,-0.8606,-0.8614,-0.8622,-0.8625,-0.8591,-0.8592,-0.8592,-0.8592,0,0,-0.8177,-0.8243,-0.8249,-0.8271,-0.8319,-0.8344,-0.8374,-0.8413,-0.843,-0.8463,-0.8489,-0.8534,-0.8541,-0.8564,-0.8584,-0.8601,-0.8616,-0.8606,-0.8608,-0.8607,-0.8651,-0.8646,-0.8649,-0.8626,-0.8627,-0.8627,-0.8648,0,-0.819,-0.8245,-0.8275,-0.8317,-0.8347,-0.8373,-0.8399,-0.8432,-0.8456,-0.8484,-0.8511,-0.8543,-0.855,-0.8564,-0.8583,-0.861,-0.8626,-0.8609,-0.865,-0.8651,-0.8639,-0.8653,-0.8646,-0.8665,-0.8652,-0.8652,-0.8653,0,-0.8213,-0.8247,-0.8293,-0.834,-0.8354,-0.8376,-0.8416,-0.8443,-0.8481,-0.8497,-0.8524,-0.8544,-0.8577,-0.8577,-0.8623,-0.8612,-0.863,-0.8647,-0.8648,-0.8652,-0.8652,-0.8657,-0.8671,-0.8674,-0.8658,-0.8657,-0.8657,0,-0.8201,-0.8259,-0.8294,-0.8313,-0.8368,-0.8384,-0.8408,-0.8445,-0.8468,-0.8502,-0.8517,-0.8555,-0.8575,-0.8603,-0.8633,-0.8631,-0.8676,-0.8679,-0.8691,-0.869,-0.8698,-0.8697,-0.8715,-0.8711,-0.871,-0.871,-0.871,0,-0.8213,-0.824,-0.829,-0.8312,-0.8343,-0.8377,-0.8407,-0.8433,-0.8467,-0.8494,-0.8519,-0.8544,-0.8582,-0.8612,-0.8636,-0.867,-0.8679,-0.8693,-0.8699,-0.8691,-0.8689,-0.8703,-0.8702,-0.8711,-0.8711,-0.8711,-0.8711,0,-0.8204,-0.8239,-0.8279,-0.833,-0.8343,-0.8364,-0.8407,-0.8429,-0.8456,-0.849,-0.85,-0.8541,-0.8578,-0.8611,-0.8659,-0.8675,-0.8711,-0.8718,-0.8698,-0.8701,-0.8711,-0.871,-0.8738,-0.8744,-0.8736,-0.8736,-0.8736,0,-0.8209,-0.8231,-0.8284,-0.8305,-0.8329,-0.8362,-0.8386,-0.8421,-0.8444,-0.8491,-0.8507,-0.8546,-0.8579,-0.8637,-0.8671,-0.8708,-0.8716,-0.8724,-0.8722,-0.8714,-0.8717,-0.8715,-0.8718,-0.8723,-0.8723,-0.8723,-0.8723,0,-0.8214,-0.8231,-0.8265,-0.8306,-0.8334,-0.8367,-0.8401,-0.8416,-0.8458,-0.8483,-0.8522,-0.8548,-0.8599,-0.8637,-0.8679,-0.8703,-0.872,-0.8724,-0.8729,-0.872,-0.8708,-0.8715,-0.8697,-0.8723,-0.8723,-0.8723,-0.8723,-0.8723,-0.8213,-0.8235,-0.8276,-0.8314,-0.8343,-0.8375,-0.8399,-0.843,-0.8463,-0.8508,-0.8527,-0.8566,-0.8605,-0.8663,-0.8688,-0.8719,-0.8722,-0.8729,-0.8731,-0.8732,-0.8731,-0.8703,-0.8727,-0.8727,-0.8727,-0.8727,-0.8727,0,-0.822,-0.8249,-0.8283,-0.8331,-0.8361,-0.8377,-0.8416,-0.8439,-0.8474,-0.851,-0.8542,-0.8588,-0.8626,-0.8664,-0.8704,-0.8722,-0.8731,-0.8731,-0.873,-0.8736,-0.8725,-0.8717,-0.8723,-0.8723,-0.8723,-0.8723,-0.8723,-0.8723,-0.8228,-0.8265,-0.8287,-0.834,-0.8369,-0.8409,-0.843,-0.8459,-0.8488,-0.8538,-0.8571,-0.8596,-0.8633,-0.8677,-0.8712,-0.8723,-0.8736,-0.8734,-0.8747,-0.8736,-0.8736,-0.8736,-0.8729,-0.8737,-0.8737,-0.8755,-0.8755,-0.8755]},{"header":{"parameterUnit":"m.s-1","parameterCategory":1,"la1":30.2991,"la2":30.254,"lo1":-89.0895,"lo2":-89.0444,"dy":0.0017,"dx":0.0017,"nx":28,"ny":28,"refTime":"2025-09-14T21:00:00:Z","depth":0,"parameterNumber":3,"parameterNumberName":"V-component_of_WINDS"},"data":[0,0,0,0,0,0,0,0,0,0,0,0,0,0,0,0,0,0,0,0,0,0,0,0,0,0,0,0,0,0,0,0,0,0,0,0,0,0,0,0,0,0,0,0,0,0,0,0,0,0,0,0,0,0,0,0,0,0,0.4445,0.4444,0,0.4354,0.4353,0.4352,0.4242,0.424,0.4239,0.4237,0.4144,0.4143,0.4142,0,0,0,0,0,0,0,0,0,0,0,0,0,0.4521,0.4521,0.4445,0.4444,0.4442,0.4355,0.4353,0.4352,0.4243,0.424,0.4238,0.4236,0.4144,0.4143,0.4142,0,0,0,0,0,0,0,0,0,0,0,0,0,0.4465,0.452,0.4445,0.4377,0.437,0.4355,0.4353,0.4352,0.4243,0.424,0.4238,0.4235,0.4145,0.4144,0.4142,0.4186,0,0,0.4138,0.4138,0,0,0,0,0,0,0,0,0.4469,0.4463,0.4388,0.4382,0.4374,0.4307,0.4346,0.4296,0.4244,0.4291,0.4237,0.4234,0.42,0.4194,0.4183,0.4182,0.4178,0.4138,0.4137,0.4137,0.4136,0,0,0,0,0,0,0,0.4473,0.4466,0.4409,0.4387,0.4379,0.4351,0.434,0.4336,0.4261,0.4287,0.4279,0.427,0.4196,0.4185,0.418,0.4176,0.4138,0.4137,0.4136,0.4136,0.4206,0.4209,0,0,0,0,0,0,0.4487,0.447,0.4412,0.4406,0.4416,0.4352,0.434,0.4331,0.4261,0.4248,0.4272,0.4265,0.4188,0.4182,0.4176,0.4223,0.4137,0.4136,0.4135,0.4203,0.4207,0.4209,0,0,0,0,0,0,0.4489,0.4483,0.4415,0.4436,0.4425,0.4353,0.4344,0.4331,0.4319,0.425,0.4236,0.4274,0.4186,0.4178,0.4184,0.4218,0.4135,0.4134,0.42,0.4204,0.4208,0.4317,0,0,0,0,0,0,0.4492,0.4484,0.45,0.4437,0.4425,0.4426,0.4346,0.4331,0.4317,0.4307,0.4248,0.4236,0.4183,0.4187,0.4183,0.4215,0.4133,0.4197,0.4202,0.4207,0.431,0.4324,0.4336,0,0,0,0,0,0.4495,0.4534,0.4502,0.4495,0.4443,0.4428,0.442,0.4359,0.4321,0.4336,0.4291,0.4238,0.4215,0.4189,0.4183,0.4215,0.4194,0.4201,0.4206,0.4304,0.4321,0.4336,0,0,0,0,0,0,0.4603,0.4525,0.4488,0.4508,0.4475,0.4409,0.4427,0.4379,0.4357,0.4348,0.4273,0.4261,0.4276,0.4246,0.4218,0.4254,0.4197,0.4202,0.4273,0.4289,0.4302,0.4309,0.4132,0,0,0,0,0,0.4629,0.4624,0.4555,0.458,0.4565,0.4499,0.449,0.4446,0.4409,0.4395,0.435,0.4317,0.4302,0.4293,0.4276,0.4305,0.4291,0.4324,0.4338,0.4349,0.4354,0.4367,0.4381,0.4229,0.4229,0.4229,0,0,0.4683,0.464,0.4641,0.46,0.457,0.4566,0.4488,0.4487,0.4483,0.4394,0.4397,0.4364,0.4321,0.4339,0.4345,0.4315,0.4393,0.4356,0.4366,0.4365,0.4375,0.4389,0.4402,0.4233,0.4232,0.4232,0,0,0.478,0.4746,0.4763,0.4734,0.4689,0.4645,0.465,0.459,0.4565,0.4567,0.4501,0.4495,0.4471,0.4443,0.4426,0.4512,0.4462,0.4509,0.4577,0.4591,0.4603,0.4613,0.4644,0.4656,0.4514,0.4514,0.4515,0,0.4853,0.4843,0.4778,0.478,0.4765,0.4685,0.4701,0.4676,0.4628,0.4619,0.4586,0.4554,0.452,0.453,0.4551,0.454,0.4542,0.4515,0.4607,0.4616,0.4625,0.4654,0.4665,0.452,0.452,0.4519,0.4519,0,0.4935,0.493,0.4949,0.4905,0.4891,0.4901,0.4837,0.4831,0.4788,0.4747,0.475,0.4706,0.4679,0.4678,0.4636,0.4682,0.4665,0.4621,0.4562,0.4647,0.4672,0.4683,0.4529,0.4527,0.4525,0.4524,0,0,0.5097,0.5017,0.5025,0.5004,0.4949,0.4943,0.4949,0.4922,0.4919,0.4888,0.4892,0.4873,0.4832,0.4813,0.4767,0.4779,0.485,0.4732,0.473,0.4756,0.4899,0.4934,0.4948,0.4817,0.4819,0.482,0.4903,0,0.5183,0.5189,0.5131,0.5153,0.5147,0.5071,0.5076,0.5043,0.5006,0.4995,0.4953,0.4942,0.4887,0.4875,0.4884,0.484,0.4878,0.4833,0.4819,0.482,0.4833,0.4961,0.4997,0.5077,0.4913,0.4914,0.4916,0,0.5284,0.526,0.5282,0.5226,0.5221,0.5227,0.5198,0.5189,0.515,0.5122,0.5101,0.5048,0.505,0.4995,0.4996,0.4967,0.4958,0.4935,0.4937,0.4933,0.4873,0.4961,0.5101,0.5114,0.4931,0.493,0.4928,0,0.54,0.5373,0.5382,0.5367,0.5302,0.5308,0.5281,0.5239,0.5227,0.5201,0.5193,0.5168,0.5154,0.5136,0.5078,0.5043,0.5087,0.5027,0.5064,0.5065,0.5076,0.5076,0.5217,0.507,0.507,0.507,0.507,0,0.5503,0.5519,0.5434,0.544,0.5456,0.5388,0.5406,0.5371,0.5335,0.5333,0.5265,0.5265,0.5188,0.5179,0.5134,0.5143,0.5137,0.5114,0.5102,0.512,0.5123,0.5113,0.5106,0.5073,0.5072,0.5072,0.5071,0,0.5635,0.5578,0.5584,0.5522,0.5507,0.5521,0.5468,0.5471,0.5429,0.5428,0.5423,0.5358,0.5344,0.5284,0.5256,0.5225,0.5249,0.5225,0.5262,0.5254,0.5295,0.5292,0.5434,0.545,0.5294,0.5295,0.5297,0,0.5704,0.5715,0.5654,0.5648,0.5625,0.5615,0.5603,0.5537,0.5526,0.5483,0.5491,0.5471,0.5452,0.5433,0.5383,0.5361,0.5336,0.5387,0.5332,0.535,0.5337,0.5337,0.5338,0.5399,0.5401,0.5403,0.5404,0,0.5832,0.5804,0.5789,0.5764,0.5751,0.5728,0.5701,0.57,0.5626,0.5618,0.5603,0.5588,0.5559,0.554,0.551,0.5482,0.5431,0.5422,0.5429,0.5448,0.547,0.5459,0.5295,0.5419,0.5417,0.5416,0.5416,0.5415,0.5935,0.5941,0.59,0.5885,0.5858,0.5834,0.5834,0.5793,0.5779,0.5751,0.5712,0.5702,0.5663,0.5617,0.5593,0.5584,0.5555,0.5566,0.5569,0.5573,0.5582,0.5471,0.5578,0.5578,0.5577,0.5577,0.5576,0,0.606,0.603,0.6017,0.5981,0.597,0.5924,0.5891,0.5885,0.5877,0.5845,0.5827,0.581,0.5792,0.5741,0.5718,0.5721,0.5697,0.5717,0.5716,0.571,0.5609,0.5605,0.5736,0.5736,0.5736,0.5736,0.5736,0.5736,0.6124,0.6132,0.6099,0.6093,0.6062,0.6052,0.6038,0.6016,0.599,0.5974,0.5959,0.5926,0.5886,0.5859,0.5841,0.5826,0.5821,0.5849,0.5827,0.5733,0.5717,0.5703,0.5699,0.5848,0.5848,0.5929,0.593,0.593]}]]